Wind_Speed
3 3 3 4 5 9 4 3 7 10 2 5 3 2 4 4 4 8 6 8 11 8 7 6 5 9 10 8 7 6 8 9 14 18 14 14 13 12 12 12 12 12 12 13 18 19 16 18 21 20 20 20 16 16 17 17 19 19 17 16 17 17 16 15 14 12 12 10 9 10 7 5 6 5 4 6 5 3 4 4 4 6 4 2 3 2
2 3 4 8 10 13 7 5 11 8 4 5 2 1 4 3 1 5 7 10 10 7 7 9 7 6 6 7 8 7 6 8 16 17 15 16 15 12 11 11 11 10 9 12 18 19 18 20 23 22 20 20 18 17 18 19 19 18 18 17 17 17 17 15 13 12 13 11 10 9 7 6 6 5 5 6 5 2 4 5 7 8 6 4 4 2
4 3 5 11 13 13 8 6 7 2 2 3 2 1 2 2 3 2 5 8 8 5 6 10 8 5 5 7 8 9 8 10 18 14 10 12 14 14 13 12 11 10 10 13 17 20 21 22 22 21 19 19 18 17 17 19 19 18 19 19 17 17 17 16 14 14 14 12 10 10 8 7 7 5 4 5 4 2 4 4 6 7 6 2 2 3
3 1 3 4 5 5 3 1 4 3 1 1 2 1 1 2 2 1 6 9 9 5 6 9 7 6 8 9 10 14 16 17 19 11 6 7 8 12 16 16 15 15 14 16 19 21 24 23 22 21 19 18 18 17 18 19 19 20 20 19 18 17 18 17 14 13 15 13 10 9 7 6 7 5 4 7 7 5 5 4 4 5 6 4 3 4
1 3 4 4 3 2 2 2 3 3 1 2 3 3 2 4 8 6 7 11 9 6 8 10 6 5 9 10 10 12 14 16 15 10 7 9 9 11 14 17 18 17 17 19 19 21 23 22 21 20 18 17 18 19 20 20 18 20 19 18 17 17 17 16 16 15 15 13 10 9 9 8 8 7 5 6 7 6 5 5 3 4 5 3 1 6
3 5 4 3 4 4 4 1 0 1 2 2 4 6 6 10 12 9 9 10 6 4 9 10 5 4 8 9 8 8 9 10 11 10 9 10 12 12 13 15 16 16 16 18 18 20 23 23 20 19 18 18 19 19 19 19 18 19 19 18 16 17 16 16 17 17 14 13 14 13 11 10 9 9 7 5 6 6 5 3 2 5 5 3 3 4
3 4 2 3 5 6 7 3 4 3 1 2 3 8 9 10 10 9 9 7 3 3 7 9 4 2 6 7 7 7 7 9 10 9 10 11 12 12 14 16 16 15 16 16 17 20 22 22 21 20 19 18 19 18 16 16 18 17 17 18 17 17 17 16 15 16 16 15 15 12 9 7 7 7 9 8 7 8 7 3 4 8 8 8 6 4
3 3 1 2 5 5 4 1 5 5 2 2 6 10 11 11 9 9 7 2 1 1 4 7 2 3 2 4 6 7 6 8 9 8 9 12 13 13 17 17 14 15 17 17 16 19 21 22 22 22 21 19 19 19 17 17 18 17 17 18 18 17 18 17 14 14 17 15 12 11 9 8 6 5 7 8 8 8 9 6 4 6 5 6 5 5
2 1 1 0 2 4 2 4 7 8 5 2 4 6 6 5 1 4 3 1 1 2 4 5 3 3 1 3 3 5 5 7 9 9 10 12 14 15 16 17 14 13 17 19 18 21 23 23 24 24 21 19 19 19 18 16 17 18 19 19 18 19 19 18 16 14 16 15 11 11 10 9 7 7 8 8 8 8 9 7 6 7 6 4 7 9
3 3 4 2 2 2 3 3 4 4 2 2 2 3 4 7 7 3 1 3 3 1 3 4 3 1 0 2 3 5 6 7 8 9 10 12 15 16 15 17 16 13 15 22 25 25 24 22 22 23 20 19 18 16 16 17 18 18 19 19 20 20 18 18 18 16 17 16 13 12 11 9 9 9 9 8 9 9 8 7 8 9 7 5 7 9
1 3 3 1 1 2 2 2 1 1 1 3 3 2 5 5 3 1 2 1 2 1 2 2 3 3 1 2 3 3 3 4 7 8 10 13 16 17 16 15 17 16 16 22 25 22 21 21 21 22 22 20 17 16 16 18 18 18 18 18 20 21 19 18 19 19 18 16 13 12 10 9 9 9 9 9 9 9 8 9 9 7 6 5 4 6
1 3 1 1 1 3 1 1 2 5 5 4 3 2 3 2 3 3 3 4 2 1 2 2 5 5 3 1 1 3 6 5 6 7 8 11 14 17 16 15 16 16 16 20 22 20 20 22 21 22 21 19 18 17 18 18 16 18 20 19 20 21 20 19 19 20 19 15 14 12 10 9 9 8 9 10 10 10 9 10 10 6 5 6 6 7
5 1 1 1 1 3 3 0 3 5 5 4 4 3 1 3 4 3 3 3 1 2 3 3 3 3 3 3 6 8 9 8 7 5 6 8 12 15 14 14 13 14 17 19 21 23 23 24 23 22 20 20 20 18 17 19 19 20 22 21 22 23 21 20 20 20 18 16 15 13 11 11 10 8 9 10 10 10 9 10 10 8 7 8 7 7
3 2 2 1 1 1 2 2 1 3 3 3 3 2 0 1 2 2 2 3 2 3 4 5 3 3 3 4 8 9 9 11 12 5 2 5 5 11 12 12 12 13 16 17 19 23 24 24 25 22 19 17 17 16 18 21 21 20 20 21 23 23 22 20 19 19 18 17 17 14 11 11 10 9 10 12 13 11 10 9 10 10 10 9 7 6
2 2 2 3 2 2 2 1 2 2 1 4 5 5 3 2 1 0 0 2 4 4 4 5 4 3 3 4 5 6 8 9 9 4 6 5 5 4 10 10 12 13 14 14 16 20 21 22 22 19 17 14 14 16 19 21 21 18 16 19 22 21 20 19 17 17 17 16 16 15 13 12 11 10 11 12 13 13 12 9 9 10 11 11 9 7
4 4 4 4 3 3 3 3 4 2 2 3 3 4 3 0 2 1 3 4 5 5 3 3 3 2 2 5 3 2 7 6 5 3 6 4 10 10 6 7 8 9 9 10 14 17 18 18 17 15 15 14 13 15 17 17 18 16 14 16 18 18 17 17 17 16 15 15 14 15 15 14 13 12 12 11 9 11 13 11 8 9 9 10 11 10
4 2 5 5 3 3 4 4 6 4 1 1 2 4 4 5 5 2 3 4 3 5 3 1 3 2 1 5 5 2 7 4 5 6 5 6 11 11 7 7 10 8 7 9 14 17 17 17 17 16 16 16 14 14 13 12 13 14 14 14 16 16 15 15 15 15 15 15 15 15 15 15 14 14 13 12 9 7 9 11 12 12 10 9 11 12
4 1 4 4 1 3 6 3 4 5 3 1 1 2 5 8 4 2 2 4 2 4 3 1 3 2 2 2 4 1 9 10 8 9 8 10 13 12 10 11 13 13 12 13 15 17 16 15 16 15 13 14 14 12 10 10 11 13 14 15 15 15 14 14 15 16 15 14 15 16 15 16 17 16 14 13 12 10 10 11 12 14 13 11 12 12
3 1 2 2 1 3 6 2 2 4 5 3 2 3 5 5 2 2 2 3 3 5 4 2 3 3 2 3 1 5 9 9 10 10 10 11 12 13 16 18 17 15 15 13 13 16 16 14 14 12 10 9 9 9 9 9 10 10 10 11 13 13 12 14 17 17 14 14 16 18 18 17 17 17 16 15 15 13 13 12 12 11 11 11 12 13
3 1 1 2 1 2 2 1 1 2 5 6 5 1 4 2 2 2 1 1 2 4 5 3 3 3 3 2 4 8 8 8 10 9 9 12 14 17 19 19 18 16 15 15 13 13 14 12 9 9 9 7 6 8 8 6 7 7 7 7 10 12 12 14 16 14 11 14 17 19 18 18 18 18 17 17 17 15 14 13 13 12 11 11 11 12
1 1 2 3 2 1 0 1 1 2 4 3 2 0 1 1 3 4 2 1 0 2 5 5 3 3 3 3 4 8 8 7 10 9 10 13 16 19 20 19 18 16 17 17 15 12 11 10 8 7 7 6 6 7 7 6 6 7 7 7 8 10 12 14 14 10 10 16 20 19 19 19 19 18 18 18 18 17 17 15 14 13 14 15 15 13
2 1 2 2 1 3 2 6 7 6 4 3 1 1 2 2 3 3 3 0 2 0 4 6 4 2 3 3 2 6 7 7 10 11 11 14 17 19 20 20 18 16 17 17 17 15 12 11 9 7 5 6 7 7 6 6 6 6 8 8 8 9 10 12 11 10 12 18 21 19 19 20 19 18 18 18 18 19 19 17 17 17 16 16 16 15
1 2 3 1 3 7 0 8 6 2 1 5 4 3 2 3 4 2 0 1 0 3 5 6 5 2 3 4 1 6 8 9 12 13 13 15 17 18 20 21 22 20 18 16 17 18 17 14 10 9 8 6 4 4 4 5 5 6 7 7 7 8 8 8 10 12 14 17 20 19 18 20 18 15 15 16 18 21 21 20 21 22 20 19 17 16
2 1 4 1 3 5 4 11 7 3 2 4 4 1 1 1 6 6 3 2 3 3 4 4 5 3 2 5 1 8 10 12 13 13 14 16 16 18 19 20 22 23 20 18 17 17 16 14 12 12 10 8 6 5 3 1 1 1 2 4 7 8 9 9 12 14 13 14 16 15 14 13 13 13 14 15 18 20 20 20 22 23 23 22 21 19
3 2 3 3 1 2 6 8 5 5 3 2 1 2 4 6 7 9 5 4 3 1 1 4 5 5 3 1 3 8 10 12 14 14 15 16 15 17 18 18 20 22 22 21 19 16 15 15 14 13 10 8 7 7 6 4 3 2 0 4 6 7 7 7 8 8 8 9 10 10 11 11 11 12 14 16 19 21 22 22 22 24 25 24 23 21
3 2 3 3 3 1 3 2 1 1 2 3 4 6 8 9 8 7 4 4 4 1 2 5 7 7 6 4 4 6 8 11 14 15 16 16 15 16 17 17 19 21 21 22 20 17 17 16 15 14 12 10 9 7 8 6 3 2 3 2 2 2 2 2 3 4 5 6 8 9 10 11 12 13 14 13 15 18 20 21 21 22 24 24 25 24
1 1 5 5 5 4 2 2 2 2 3 3 6 8 9 10 9 6 5 5 6 6 7 8 9 10 9 8 6 5 7 10 11 13 16 16 16 17 17 17 20 21 21 21 21 20 19 18 16 15 14 13 12 10 9 8 6 5 5 5 4 3 3 3 3 2 2 3 5 7 8 10 12 13 12 11 10 12 15 16 16 17 17 19 22 24
1 2 5 6 8 8 4 1 3 2 3 4 8 9 11 11 9 8 7 5 6 7 6 7 11 12 10 9 9 9 9 9 8 11 14 15 16 17 17 18 20 21 20 20 21 20 19 18 17 16 16 15 14 12 11 11 11 10 10 9 8 6 5 5 6 5 4 4 5 6 7 9 10 11 12 12 11 12 14 15 14 14 14 15 17 21
2 3 4 5 9 11 9 7 5 2 3 7 9 10 11 11 10 9 7 5 5 6 7 10 12 12 10 9 10 10 11 10 10 12 13 14 15 17 18 18 18 19 20 20 20 19 18 17 16 15 15 14 13 12 12 12 12 12 12 11 10 8 6 5 6 6 6 7 7 8 8 9 10 11 11 11 11 11 12 12 12 12 13 14 14 16
2 2 2 5 8 9 11 13 9 1 6 8 9 9 11 12 11 10 9 9 11 12 12 13 14 12 9 9 9 10 13 14 13 14 14 14 15 15 16 18 18 18 18 18 18 18 16 15 14 14 14 13 13 12 12 11 12 12 12 10 9 9 8 7 5 4 5 5 7 8 8 8 9 10 10 10 9 10 11 12 11 11 12 13 14 13
3 1 2 4 4 5 10 14 6 8 10 8 8 8 10 11 10 11 11 11 13 14 14 14 14 10 7 8 10 11 13 14 14 14 14 14 15 15 16 17 17 17 17 16 17 16 14 13 13 13 13 13 13 12 12 11 12 12 12 11 11 10 9 7 4 3 3 4 4 5 7 8 7 7 8 8 8 9 11 11 10 10 10 12 14 14
3 2 3 3 2 4 10 13 2 11 11 9 10 8 6 7 8 8 7 7 9 13 13 12 10 7 7 9 10 11 12 13 13 13 14 14 14 14 15 16 16 15 15 14 15 14 13 13 13 13 13 12 12 12 12 11 11 11 12 11 11 11 10 8 6 4 5 6 6 6 6 6 5 6 7 8 7 7 9 10 10 10 10 11 13 14
3 2 2 2 3 5 6 7 6 2 5 6 6 6 5 7 9 8 7 7 7 8 8 7 7 8 9 9 10 10 11 11 11 12 12 12 14 14 14 14 15 14 13 14 15 14 13 13 12 12 12 12 12 12 11 10 10 11 11 11 11 11 12 11 9 6 7 9 10 9 7 6 6 7 7 7 6 7 8 10 9 10 12 12 14 16
1 2 2 0 2 6 5 5 5 5 1 3 3 5 4 5 7 8 8 8 7 5 6 9 10 11 10 10 10 10 10 11 12 12 11 11 12 13 12 12 14 15 14 14 14 13 12 13 12 12 12 12 12 12 11 11 11 11 11 11 11 12 12 13 12 10 9 10 10 9 8 8 8 8 7 7 6 6 7 9 9 10 12 13 14 16
1 2 2 1 1 4 5 5 5 4 1 2 3 5 4 7 9 11 11 9 8 9 12 13 12 12 11 11 13 14 14 14 14 13 12 11 11 11 12 13 14 14 13 12 12 12 13 12 12 12 13 12 12 12 12 12 11 11 12 12 12 13 13 13 14 14 13 13 12 11 9 8 9 9 9 8 7 6 7 9 10 10 11 12 13 13
1 2 1 1 2 2 2 4 3 1 1 1 1 2 4 8 10 10 9 8 6 8 11 12 12 12 13 14 15 15 17 16 15 14 13 12 11 11 13 14 13 12 12 12 11 13 13 12 12 13 13 12 12 13 12 12 12 12 13 13 13 14 14 14 15 15 15 15 14 12 10 9 9 9 9 9 8 8 8 9 10 11 11 12 12 10
2 1 0 1 1 0 1 3 0 2 3 4 2 2 3 4 5 7 7 6 4 4 8 12 12 12 13 15 15 15 15 14 12 12 12 11 11 12 12 12 12 12 12 12 12 12 13 13 13 13 13 13 13 13 12 13 13 13 13 13 14 14 15 15 16 16 15 15 15 14 12 11 10 10 10 9 9 9 9 9 9 10 10 10 9 8
1 1 1 2 1 2 1 1 2 3 3 1 1 3 4 3 3 7 7 6 4 3 6 10 10 11 12 13 13 13 11 9 7 7 8 10 10 11 12 12 12 12 12 12 12 13 13 13 13 13 14 14 14 13 13 13 13 13 13 13 14 14 15 16 16 16 16 16 16 15 14 14 13 13 13 12 11 11 10 9 9 9 9 8 8 7
2 3 3 2 2 2 2 3 4 3 1 1 1 2 3 1 3 5 4 4 5 7 10 10 6 7 10 10 10 8 5 3 5 5 5 7 9 10 11 11 12 12 13 13 13 13 13 13 13 13 14 15 14 13 13 13 13 13 13 13 14 14 15 15 15 15 16 16 15 14 14 15 16 15 15 15 15 15 13 11 11 10 9 9 8 8
2 3 2 1 3 4 3 3 3 1 2 3 5 4 3 1 3 4 4 3 7 9 12 13 8 6 9 10 7 3 0 2 6 7 7 8 9 10 11 12 12 12 12 12 12 12 13 13 13 14 14 15 14 13 12 12 13 14 14 14 14 14 15 14 14 14 14 15 15 14 13 13 14 14 14 14 15 16 16 15 13 12 12 13 13 12
1 1 1 1 2 4 4 3 3 1 2 3 4 3 1 1 3 3 2 6 10 10 11 13 12 10 10 9 6 4 7 9 12 11 10 10 10 11 11 12 12 12 12 12 12 12 12 13 14 14 14 14 14 13 13 13 13 14 14 14 14 14 14 13 13 13 13 14 15 15 14 14 14 13 12 12 13 13 14 13 12 12 14 16 15 14
2 2 2 2 0 1 1 1 2 1 0 2 4 4 1 2 1 2 4 10 14 12 9 9 10 12 12 10 8 9 12 14 14 13 11 11 11 12 12 12 12 12 12 12 12 11 12 13 13 14 14 14 13 13 13 13 14 14 13 14 14 13 12 12 12 12 12 13 14 15 15 14 15 15 14 12 13 13 12 11 10 11 13 14 13 13
1 2 2 3 1 1 3 2 2 2 2 4 5 3 2 2 4 7 9 12 14 13 11 11 12 13 14 14 13 13 14 14 13 13 12 12 11 11 11 11 11 12 11 12 12 11 11 12 13 13 13 13 13 13 13 13 14 13 13 13 13 11 11 11 11 12 12 13 13 14 14 14 14 14 15 13 10 11 11 11 10 10 10 10 10 9
1 1 1 2 1 1 2 2 0 2 4 6 6 4 5 8 11 12 12 14 15 14 13 14 13 13 14 15 15 14 13 13 13 12 12 12 12 11 11 11 11 11 11 11 11 11 11 12 12 12 12 12 12 12 12 12 13 13 13 13 11 10 10 10 10 11 11 12 12 12 13 13 13 12 13 13 11 8 9 9 9 9 9 8 8 8
1 2 3 3 2 1 2 3 4 6 7 11 11 9 9 12 12 12 13 14 15 13 13 14 13 12 12 14 14 13 13 12 13 12 12 12 11 11 10 10 10 10 10 10 10 10 10 11 11 11 11 11 11 11 11 11 12 12 12 11 11 10 10 10 10 10 10 10 11 11 11 11 12 12 12 12 12 11 9 6 6 6 6 7 8 7
5 4 3 3 3 3 7 9 7 5 9 13 13 10 11 13 12 11 12 13 14 13 12 13 13 12 12 12 12 12 13 13 13 12 12 12 11 11 10 10 9 9 8 9 9 9 9 9 9 10 10 10 10 10 10 10 10 10 10 10 9 9 9 9 9 9 9 9 9 10 10 9 9 11 11 11 11 12 12 11 8 5 3 3 5 5
5 2 3 4 3 3 5 7 6 6 9 12 12 11 13 14 13 12 13 14 14 14 13 12 11 10 11 11 12 12 13 12 12 12 12 11 11 10 9 9 9 8 8 8 7 7 7 7 8 8 8 8 8 8 8 8 8 8 8 8 8 8 8 8 9 9 9 8 8 8 9 9 8 8 11 11 10 10 11 12 14 14 10 5 2 1
1 2 1 3 3 4 6 6 7 9 10 10 11 13 14 14 13 13 14 14 14 14 13 12 10 10 12 12 12 12 12 11 11 11 11 10 10 9 9 8 8 7 7 6 6 6 6 6 6 6 6 7 7 6 7 7 7 7 7 7 7 7 7 8 8 8 8 8 7 6 6 8 8 7 8 10 9 8 10 11 12 15 16 13 10 5
2 2 2 4 6 7 8 8 10 11 8 7 11 14 14 14 15 14 14 14 14 13 13 12 11 11 12 12 11 11 11 10 10 10 10 9 9 9 8 7 7 6 5 5 5 5 5 5 5 5 5 5 5 5 5 5 6 6 6 7 7 6 7 7 6 7 7 8 8 6 5 6 8 7 8 8 9 10 11 10 10 12 14 15 14 11
1 2 3 4 5 5 5 6 6 5 5 8 13 15 14 14 15 14 13 14 13 13 13 13 13 12 11 10 10 10 10 10 9 8 9 9 8 8 7 6 5 5 4 4 3 3 3 3 3 3 4 3 3 4 4 4 5 5 5 6 6 6 7 6 5 5 6 7 7 7 7 7 8 8 8 8 9 11 12 11 10 10 10 12 14 14
5 2 3 5 6 6 6 5 3 5 11 14 15 14 14 14 14 14 13 13 12 12 12 12 12 12 11 10 9 9 9 9 8 8 8 8 7 7 6 5 4 3 3 2 1 1 1 2 2 3 3 4 3 3 4 4 4 4 5 5 6 6 6 6 5 5 5 6 7 7 7 7 8 8 8 8 8 9 11 10 10 9 8 9 12 12
Wind_Direction
245 264 238 236 258 266 258 129 260 266 191 123 150 194 165 174 173 145 169 212 191 189 194 171 132 138 154 167 174 193 176 183 241 234 186 167 171 169 174 180 183 180 176 175 173 169 169 175 177 178 176 168 169 176 177 177 176 183 187 179 174 175 176 173 176 174 162 158 166 178 190 202 210 200 192 215 216 214 233 223 222 260 294 296 257 227
231 270 242 212 228 251 249 188 234 253 132 142 157 147 167 169 160 147 184 207 198 196 176 145 128 142 170 177 173 179 175 203 232 220 184 172 169 166 175 181 184 179 171 174 177 176 179 184 182 178 174 169 173 181 179 180 181 184 186 181 176 175 173 175 177 165 157 171 181 183 191 196 213 211 176 212 258 241 219 245 264 278 285 252 258 319
233 231 201 193 205 226 232 209 218 223 109 173 116 73 196 109 47 342 250 216 204 213 163 149 151 155 198 195 174 178 177 209 226 213 174 165 161 164 175 176 177 173 171 179 183 186 188 188 185 180 174 172 177 181 182 183 182 184 183 180 178 176 177 179 173 160 162 180 187 186 193 186 196 224 208 209 231 199 203 254 294 306 312 274 202 333
254 191 136 161 196 222 230 181 195 184 172 207 139 170 238 76 105 258 258 224 206 207 165 161 164 153 181 187 177 186 180 188 210 204 137 141 155 170 174 171 174 174 174 184 189 192 192 188 184 182 178 176 180 181 185 186 185 188 187 183 180 179 185 181 166 167 178 181 186 188 188 176 177 203 210 193 199 208 214 240 287 280 290 320 142 179
360 82 93 78 53 26 70 126 197 196 183 229 222 210 179 194 214 207 194 191 187 194 176 168 171 163 181 186 169 177 181 177 184 179 157 165 178 187 180 170 171 172 178 188 191 191 193 191 186 183 179 180 186 188 189 190 190 190 186 183 184 185 189 180 171 181 183 175 180 184 182 185 187 189 183 185 205 223 223 237 283 252 258 330 118 188
79 118 140 109 75 33 31 77 132 276 217 234 231 216 190 192 213 206 168 165 161 169 180 184 194 168 177 190 168 158 174 173 168 172 176 179 185 194 193 183 175 175 182 190 192 188 190 193 186 181 184 187 191 194 194 193 192 189 185 184 188 191 186 180 186 188 179 178 187 190 191 191 192 193 193 203 215 213 214 231 233 220 245 308 292 249
110 132 162 84 72 35 14 22 56 43 3 322 234 209 212 214 209 190 167 163 154 146 186 206 230 151 174 191 178 165 172 171 170 175 178 183 188 192 198 194 186 184 186 189 195 191 189 191 188 185 190 191 191 193 192 191 191 187 187 191 192 193 186 182 195 191 181 192 193 189 194 185 184 192 194 208 215 205 202 200 196 215 255 294 280 265
148 136 189 115 94 71 14 337 113 111 106 293 237 197 208 229 208 183 182 161 139 180 190 199 169 93 192 213 174 171 184 177 175 183 187 191 192 194 197 193 188 190 191 189 191 195 193 192 193 193 192 193 192 192 191 192 195 188 189 196 192 192 189 184 197 195 189 201 190 175 187 190 199 201 191 204 211 211 212 211 212 211 247 296 290 297
298 11 306 32 88 118 160 204 164 161 166 210 231 177 189 240 158 164 205 15 318 224 176 178 162 111 275 271 175 164 193 195 192 198 200 199 197 197 198 193 188 188 194 196 192 196 199 195 197 198 194 195 194 194 197 195 195 192 192 197 192 191 193 187 193 197 196 202 182 175 195 194 197 201 197 210 209 212 219 218 236 226 211 253 288 306
304 6 6 18 350 52 108 162 168 185 185 91 54 74 49 16 26 42 36 15 345 305 167 179 182 151 222 229 185 182 202 206 205 206 208 206 200 200 200 195 191 181 189 201 199 198 200 194 195 196 190 191 191 190 198 194 191 192 192 197 192 190 196 191 191 195 199 200 180 183 202 184 182 200 202 212 208 206 214 216 235 240 225 233 275 295
186 83 4 34 310 339 48 63 98 126 99 77 67 80 63 33 354 344 71 85 355 2 234 201 97 80 132 173 167 191 238 235 217 215 213 204 200 204 199 188 190 183 184 204 204 199 199 192 191 193 189 190 189 184 188 191 191 192 193 197 193 192 198 195 192 194 200 199 182 186 201 178 176 200 202 206 205 205 223 229 229 242 248 236 239 277
310 138 325 60 263 292 320 20 90 104 92 81 66 80 104 126 214 218 175 182 185 126 204 159 94 88 102 95 351 313 320 299 241 232 228 207 195 202 197 189 193 175 174 203 202 189 192 194 194 195 190 188 187 181 183 191 196 196 196 196 193 195 199 197 194 196 199 195 183 190 200 186 186 201 205 208 208 209 227 236 231 235 246 235 228 251
338 31 359 165 211 319 325 294 131 108 86 76 49 33 121 180 183 186 177 174 148 116 115 96 90 77 75 40 356 334 329 310 279 259 250 232 201 196 194 188 180 150 158 193 194 184 189 195 198 199 191 185 184 183 188 194 195 195 197 197 195 196 198 197 195 196 199 191 186 196 198 191 198 202 202 210 214 216 220 227 234 241 237 230 235 245
314 6 358 262 155 83 302 302 121 109 108 116 92 90 227 243 175 164 156 132 108 111 63 30 12 21 45 29 1 343 336 318 303 313 334 299 243 199 193 175 161 154 163 179 187 187 186 189 196 198 194 190 185 187 192 193 193 193 197 199 196 194 198 202 199 198 201 195 192 199 197 195 204 206 208 211 211 216 224 228 232 237 238 242 251 249
325 34 41 350 31 162 218 333 68 24 216 177 163 171 217 278 190 208 190 112 106 102 55 23 13 24 31 11 355 342 343 316 292 3 54 5 12 154 183 165 160 173 168 163 180 186 178 180 191 191 188 189 185 189 193 193 194 193 196 200 197 195 199 204 205 204 206 205 200 198 197 201 208 214 221 217 205 204 211 221 228 230 235 244 251 249
355 40 79 69 79 149 157 137 119 50 272 208 185 189 217 249 124 76 26 70 97 105 70 38 51 46 3 350 358 43 4 317 239 94 70 47 45 62 81 96 126 171 176 161 174 179 170 172 184 184 178 179 183 192 195 194 193 192 198 203 199 199 202 205 211 214 212 213 211 204 200 200 207 217 224 228 217 198 197 199 207 226 238 237 237 239
2 76 132 128 139 120 109 125 129 128 189 197 208 222 189 124 126 153 74 86 106 98 81 80 105 144 196 347 335 96 61 44 156 135 107 99 80 79 81 92 117 146 171 178 180 175 168 171 181 182 174 175 186 192 195 196 197 198 202 204 201 198 202 208 214 217 216 217 219 220 213 202 207 217 219 227 228 200 203 212 207 211 223 232 237 241
16 12 144 128 251 141 145 175 162 181 236 236 170 189 151 132 145 221 118 125 153 100 95 149 126 147 141 56 314 71 79 70 96 108 104 108 113 122 124 116 121 129 141 160 170 162 156 164 174 174 169 176 183 185 190 193 196 202 204 205 205 203 204 211 213 212 217 223 223 226 225 211 208 213 215 225 227 213 216 227 222 214 210 219 235 243
88 10 82 70 342 137 153 211 253 226 236 247 324 54 137 165 193 231 171 131 142 118 118 118 91 62 64 93 67 71 78 76 79 78 77 85 93 98 94 90 97 117 130 133 142 148 150 155 159 162 164 169 174 181 193 194 194 205 211 208 212 215 216 217 218 216 219 229 229 228 229 223 216 212 210 222 232 227 219 223 239 237 220 219 228 233
96 26 41 79 75 95 137 210 313 248 208 220 275 328 162 188 67 114 184 83 115 125 126 114 92 81 56 49 65 69 70 75 81 78 72 73 67 70 83 89 92 105 115 112 119 134 141 140 140 155 164 163 174 187 194 191 193 215 230 225 221 226 229 225 226 226 225 230 234 231 228 226 225 220 214 217 225 229 223 221 236 244 240 242 239 231
39 80 6 21 44 288 200 125 147 203 216 225 263 221 152 28 70 99 76 48 181 140 121 113 95 73 50 10 46 71 70 64 76 77 70 72 66 65 79 92 94 96 99 104 112 118 124 129 129 143 165 178 183 181 183 186 193 216 228 228 225 229 234 232 229 231 236 234 232 230 225 224 228 228 222 219 220 227 230 226 229 234 240 252 255 249
11 84 322 339 303 272 188 164 182 184 216 246 235 319 353 52 73 65 58 328 255 67 103 112 108 48 346 305 34 79 82 70 75 77 70 70 68 66 74 82 87 88 88 94 103 106 113 126 127 123 145 178 187 183 185 188 193 209 217 223 229 229 231 236 231 224 231 232 229 229 227 225 228 230 228 224 222 227 232 232 235 235 233 242 254 257
92 49 319 271 287 301 113 147 169 145 252 269 293 330 349 92 99 87 123 231 208 102 107 109 106 70 308 288 17 85 90 81 77 79 79 76 74 74 75 76 78 80 78 79 85 91 101 112 108 89 88 115 153 165 176 187 190 200 209 216 228 231 230 235 228 219 223 228 229 232 232 229 230 232 235 235 232 232 231 229 235 239 235 233 240 247
148 41 324 324 277 287 93 111 129 137 161 273 291 288 288 89 116 126 151 138 95 121 136 116 99 101 270 285 28 91 95 89 81 80 82 81 78 78 78 78 79 79 79 79 78 79 86 90 86 78 72 67 68 79 101 160 178 198 244 239 233 234 233 226 217 212 217 228 233 240 246 245 242 240 241 242 241 244 246 242 239 241 240 237 236 238
21 18 319 338 313 179 123 115 145 163 158 287 309 88 33 23 81 109 130 122 99 278 190 125 106 107 130 265 63 88 93 92 87 83 83 85 84 81 77 76 77 78 82 86 85 82 82 80 80 81 80 78 74 70 71 72 67 70 181 223 217 220 229 226 217 215 222 233 239 248 258 262 260 258 259 254 248 251 256 258 255 250 248 246 243 239
33 14 317 348 357 89 128 127 113 84 312 329 19 55 51 36 60 100 118 97 90 31 38 96 111 114 114 99 66 70 84 90 88 85 84 86 90 92 90 87 86 86 88 90 88 84 81 80 82 85 92 97 90 79 80 84 86 107 126 166 187 210 255 250 232 236 243 244 243 249 263 274 279 281 285 279 265 258 258 259 260 258 256 254 251 247
50 351 328 340 328 325 3 37 65 339 314 35 52 46 53 48 50 79 86 77 99 90 63 84 114 122 119 112 105 95 87 84 82 83 84 84 87 90 92 91 89 88 90 91 89 85 79 75 74 76 82 84 81 83 86 82 79 81 73 53 40 23 359 1 343 293 280 272 259 261 275 285 288 291 298 300 292 285 283 277 269 266 265 261 255 253
54 341 331 335 319 307 301 250 184 221 332 60 75 61 59 59 60 76 84 97 117 103 92 115 121 115 113 110 109 106 94 85 80 82 85 86 87 90 92 92 88 86 85 84 81 77 73 69 65 64 66 67 68 70 65 58 58 61 59 51 41 31 22 15 7 358 350 340 326 316 310 306 302 298 298 300 298 295 297 296 290 285 279 270 260 256
347 326 326 329 315 307 313 306 257 206 48 58 69 70 72 71 72 82 90 108 118 117 137 140 123 111 111 105 97 93 92 96 98 96 95 92 90 92 93 92 90 88 84 81 77 72 67 65 64 61 59 58 58 56 53 52 51 49 50 47 39 35 38 35 24 9 350 335 329 324 316 313 313 309 307 308 305 303 303 302 300 296 291 283 272 265
319 291 319 327 316 314 318 304 290 359 80 76 67 67 75 74 73 83 91 97 103 116 133 128 112 105 106 106 102 98 97 101 102 100 99 95 90 89 85 81 81 82 80 79 78 76 71 67 65 63 59 56 54 51 48 46 44 42 42 37 33 32 32 36 36 16 1 353 340 332 327 323 319 317 317 316 309 304 303 303 299 293 292 290 284 281
313 315 344 329 320 320 296 279 280 80 84 84 71 58 68 78 76 79 91 101 109 118 124 118 109 105 107 109 108 105 102 101 101 98 96 95 91 89 85 79 75 74 74 74 75 74 73 69 64 63 61 54 51 51 47 42 37 37 35 30 31 30 27 35 39 12 9 8 350 349 348 341 332 320 309 302 300 300 302 305 305 297 293 292 289 287
293 339 345 320 308 303 287 284 319 99 104 86 66 47 51 84 84 81 97 112 119 127 129 123 119 122 127 123 116 111 103 95 94 92 91 92 90 86 87 85 80 76 73 72 73 72 72 71 66 64 63 58 52 50 48 43 38 36 34 33 33 30 26 30 30 25 33 25 8 358 341 327 325 318 306 298 295 296 296 295 291 288 288 291 292 290
317 333 322 325 317 284 286 319 342 116 131 92 59 20 29 87 95 89 88 82 99 136 145 132 128 133 136 132 120 111 102 92 87 83 81 83 83 78 76 77 79 77 69 64 67 68 67 67 65 62 63 62 58 54 50 48 46 41 37 35 34 32 30 30 26 24 37 35 24 10 350 335 332 324 321 318 307 299 297 294 291 293 295 296 294 292
302 294 269 281 307 288 306 341 310 269 208 82 39 7 35 111 117 103 94 77 73 97 105 108 123 133 134 130 120 111 105 99 93 86 79 78 80 79 74 69 71 70 63 59 61 63 63 64 64 61 60 59 57 55 54 53 52 48 44 41 38 36 36 34 29 25 29 30 26 17 4 357 356 356 358 351 333 322 315 309 311 315 311 306 301 298
99 287 284 266 252 297 325 320 276 265 351 57 27 19 64 114 111 98 90 81 81 98 108 116 126 130 126 120 119 117 110 100 91 84 77 71 70 72 70 70 72 69 66 65 62 59 60 63 62 58 57 57 55 55 55 54 54 52 49 46 44 42 41 39 35 33 32 29 25 22 16 10 11 17 17 8 355 348 335 325 328 335 333 327 324 319
115 277 325 335 288 302 318 295 276 222 173 162 68 43 95 112 113 104 88 77 86 108 121 125 124 124 124 120 119 117 111 101 90 80 74 70 68 67 66 69 73 73 72 71 65 59 58 60 59 55 56 58 56 55 55 54 56 55 51 49 48 46 45 43 40 37 35 32 30 28 27 24 19 19 19 13 8 2 353 343 338 340 341 336 332 332
171 183 333 292 266 238 309 307 12 158 200 199 165 134 114 104 116 121 108 94 97 114 127 130 127 126 127 126 125 123 117 109 94 74 68 70 74 76 75 75 76 76 75 73 69 65 62 61 59 55 58 60 58 56 57 56 57 57 54 51 49 48 46 43 42 40 37 36 34 32 36 37 32 28 25 19 17 14 8 3 354 343 340 336 330 326
271 73 341 301 233 171 222 276 222 210 207 178 119 97 83 55 93 118 114 109 121 133 122 122 125 129 133 132 129 129 130 123 104 75 64 67 74 80 81 79 78 77 75 74 72 69 65 63 61 58 59 59 58 56 56 57 59 58 55 51 48 47 46 43 41 39 37 38 38 37 38 41 43 43 37 31 31 28 17 11 7 355 344 339 337 333
19 60 41 344 294 253 236 245 249 249 93 106 211 120 101 109 148 148 147 127 112 96 91 95 103 121 127 123 120 132 163 152 113 100 85 75 75 79 81 80 80 79 75 73 72 70 67 65 62 60 58 57 57 57 56 56 58 58 55 52 49 47 45 42 40 38 37 38 39 40 41 44 48 49 46 43 40 36 33 32 24 8 358 357 2 9
24 46 51 324 297 319 328 292 279 335 90 162 190 163 139 176 185 199 213 141 100 99 115 128 141 135 115 111 114 125 286 102 122 134 133 109 90 83 81 80 79 78 75 73 71 70 68 66 63 61 57 55 55 57 58 57 57 57 55 51 49 47 43 41 40 38 37 37 35 36 39 44 48 48 50 52 46 36 35 40 35 21 13 15 24 36
52 29 86 135 317 347 347 292 271 328 85 150 159 138 124 203 194 215 208 109 105 117 135 140 146 148 133 127 135 103 73 93 121 134 131 115 99 91 86 82 80 78 76 72 70 70 68 65 63 61 58 56 55 55 57 59 59 58 56 52 50 46 42 40 40 39 39 37 35 35 37 41 44 43 50 69 69 50 37 37 37 30 23 23 33 41
168 188 140 116 182 28 56 262 264 289 135 137 116 95 31 284 213 126 100 107 114 124 129 124 132 142 141 137 133 112 100 108 120 123 116 106 98 93 88 85 82 79 74 71 70 70 69 66 64 62 59 57 57 56 57 60 60 56 54 52 50 46 41 38 37 39 41 39 37 36 37 40 40 35 40 70 88 75 53 43 37 32 30 31 34 35
151 182 131 103 125 119 112 165 235 229 174 142 116 93 11 14 119 123 113 111 116 117 113 112 121 132 135 131 124 117 116 117 114 112 110 104 99 95 91 88 84 79 76 73 70 70 70 67 64 63 61 58 56 56 57 58 59 56 52 49 45 43 43 40 35 35 39 41 39 35 33 37 41 37 33 45 74 85 76 63 45 33 36 39 34 28
190 236 140 120 148 204 164 173 316 23 63 85 90 85 62 80 112 128 125 121 123 121 114 115 122 129 128 125 122 122 122 119 115 115 113 107 103 100 96 91 87 84 80 77 73 71 71 68 63 60 61 60 58 56 54 54 54 52 50 47 42 39 38 37 35 35 34 35 37 36 31 29 35 43 38 31 36 62 86 86 68 51 45 40 32 28
63 55 71 99 143 167 75 68 39 26 53 76 85 92 91 93 107 121 119 118 120 118 115 116 119 121 119 119 123 126 125 124 123 120 115 111 109 105 101 97 92 88 84 79 75 70 67 66 64 61 59 57 56 54 53 52 51 48 44 41 39 37 35 34 34 34 32 30 30 32 32 24 21 30 41 39 30 29 42 63 79 84 79 63 49 40
84 92 103 107 135 118 78 78 79 67 77 88 93 96 96 96 98 102 105 108 110 112 116 120 120 124 128 130 130 129 129 129 125 121 118 116 113 109 107 103 97 92 89 82 75 70 66 64 62 60 56 55 54 51 49 49 48 46 41 33 30 31 32 35 35 30 28 28 21 20 25 24 10 1 8 27 37 31 25 23 26 41 81 99 84 74
86 121 143 116 125 126 90 88 87 71 79 92 96 94 96 97 97 97 99 101 101 103 108 113 117 122 125 127 128 128 129 128 125 123 122 118 115 114 113 108 103 98 93 87 79 74 69 64 60 57 52 49 47 44 43 43 43 46 42 31 26 23 21 27 33 27 24 25 21 15 14 15 14 355 342 355 21 31 21 13 11 12 12 6 10 89
28 294 168 111 96 94 105 107 88 71 73 83 90 95 101 105 103 100 100 98 97 99 105 110 114 113 114 119 126 128 127 127 127 125 122 118 118 118 115 113 112 106 99 93 84 76 72 65 60 56 49 43 38 34 34 31 28 33 34 24 20 19 13 15 20 17 14 12 10 15 12 2 5 5 341 332 338 356 2 355 351 360 8 8 359 343
238 226 136 124 111 99 109 120 105 86 80 94 103 104 105 105 102 99 100 100 100 103 106 106 105 107 111 117 122 123 123 122 122 123 122 121 120 120 120 121 117 108 102 98 91 84 79 67 56 50 42 34 27 20 19 18 15 17 17 9 8 11 10 10 9 5 7 2 354 4 25 6 348 349 350 337 318 320 336 339 333 343 359 6 7 5
259 138 109 120 123 103 109 131 127 109 110 117 111 106 104 106 106 104 103 102 101 102 103 100 100 102 104 108 114 118 117 116 116 119 121 120 119 121 124 124 120 115 111 103 94 87 74 54 43 42 27 14 12 4 355 357 1 359 358 356 356 356 358 4 5 359 359 355 344 351 14 10 346 336 344 342 323 315 320 325 324 329 343 356 2 5
25 68 91 103 104 100 112 134 137 103 103 106 106 106 106 107 107 104 102 102 102 104 105 105 104 103 100 100 106 111 112 113 114 116 117 119 121 124 124 122 121 121 116 108 106 89 48 7 358 3 350 345 356 349 332 330 336 338 341 344 341 338 341 349 353 349 346 342 335 338 351 352 341 336 336 333 327 321 318 314 312 314 326 344 351 351
Height
1458 1461 1464 1465 1462 1456 1450 1450 1451 1444 1439 1443 1447 1449 1452 1457 1457 1458 1459 1454 1453 1457 1458 1457 1460 1461 1462 1462 1460 1462 1464 1466 1473 1472 1465 1465 1467 1469 1471 1473 1475 1478 1480 1481 1483 1484 1486 1486 1486 1487 1489 1490 1493 1495 1498 1500 1501 1501 1503 1504 1505 1506 1508 1510 1511 1513 1515 1517 1518 1519 1521 1521 1521 1522 1524 1523 1524 1525 1526 1526 1525 1524 1524 1525 1525 1525
1462 1466 1465 1460 1459 1457 1452 1453 1451 1444 1441 1445 1449 1452 1454 1457 1458 1457 1457 1454 1452 1457 1458 1457 1462 1464 1462 1464 1463 1463 1467 1471 1474 1471 1465 1464 1466 1468 1470 1473 1475 1478 1480 1482 1484 1485 1485 1485 1486 1487 1488 1489 1491 1494 1497 1499 1500 1501 1502 1503 1505 1506 1508 1509 1511 1513 1515 1517 1518 1519 1520 1520 1521 1521 1523 1523 1523 1524 1525 1525 1524 1524 1524 1524 1524 1524
1465 1465 1459 1453 1453 1453 1449 1447 1446 1444 1444 1446 1450 1455 1458 1459 1462 1461 1458 1454 1454 1456 1456 1456 1461 1465 1465 1466 1465 1465 1471 1475 1474 1470 1465 1463 1464 1466 1468 1471 1473 1476 1479 1482 1483 1484 1484 1484 1487 1488 1488 1488 1490 1493 1497 1499 1500 1501 1502 1503 1505 1506 1508 1509 1511 1513 1515 1516 1517 1518 1519 1520 1520 1520 1521 1523 1523 1524 1524 1524 1524 1523 1523 1523 1524 1524
1462 1454 1448 1446 1447 1447 1446 1445 1444 1446 1448 1449 1451 1457 1461 1462 1467 1470 1465 1459 1454 1452 1452 1453 1457 1463 1468 1469 1466 1466 1470 1474 1473 1467 1463 1464 1464 1465 1464 1465 1468 1472 1477 1481 1482 1483 1483 1484 1487 1487 1486 1487 1489 1493 1497 1499 1500 1501 1502 1503 1505 1506 1507 1509 1511 1513 1514 1516 1517 1518 1518 1519 1520 1520 1520 1522 1522 1523 1524 1524 1523 1523 1522 1522 1523 1524
1452 1445 1443 1445 1445 1445 1447 1447 1446 1448 1450 1451 1451 1455 1461 1463 1466 1468 1463 1457 1452 1449 1446 1450 1459 1464 1466 1466 1462 1461 1463 1465 1466 1464 1462 1463 1463 1464 1463 1462 1464 1468 1473 1478 1481 1483 1483 1485 1486 1485 1485 1486 1490 1494 1497 1498 1500 1501 1502 1503 1505 1506 1507 1509 1511 1512 1514 1515 1516 1517 1517 1518 1518 1519 1520 1521 1521 1522 1523 1523 1523 1522 1522 1522 1523 1523
1446 1443 1442 1444 1445 1446 1448 1448 1449 1449 1451 1453 1451 1452 1457 1461 1462 1460 1454 1451 1455 1456 1447 1448 1464 1466 1458 1457 1456 1455 1457 1458 1459 1460 1460 1461 1461 1461 1463 1464 1465 1467 1471 1476 1480 1483 1484 1485 1485 1484 1484 1487 1491 1495 1497 1499 1500 1501 1502 1503 1505 1506 1507 1509 1511 1512 1513 1515 1516 1516 1516 1517 1517 1518 1519 1519 1520 1521 1522 1523 1523 1522 1521 1522 1522 1522
1442 1441 1439 1442 1446 1448 1451 1452 1451 1452 1458 1460 1451 1447 1452 1455 1457 1454 1448 1450 1458 1459 1446 1442 1460 1468 1459 1454 1453 1454 1455 1455 1455 1456 1457 1458 1459 1459 1461 1465 1467 1468 1470 1474 1479 1482 1484 1484 1483 1483 1485 1489 1493 1496 1497 1499 1501 1502 1503 1503 1505 1506 1508 1509 1510 1511 1513 1514 1514 1515 1515 1515 1516 1516 1517 1518 1519 1520 1521 1522 1522 1521 1521 1521 1521 1521
1438 1441 1441 1440 1445 1453 1458 1456 1453 1456 1466 1464 1448 1444 1453 1453 1451 1448 1447 1450 1453 1451 1446 1442 1453 1469 1469 1456 1449 1453 1455 1454 1453 1454 1454 1454 1456 1458 1459 1462 1467 1469 1470 1472 1477 1480 1482 1482 1482 1484 1487 1490 1494 1496 1497 1498 1500 1502 1502 1503 1505 1506 1508 1509 1510 1511 1512 1513 1513 1514 1514 1514 1514 1515 1516 1517 1518 1519 1519 1520 1520 1520 1521 1521 1520 1520
1435 1440 1441 1439 1445 1453 1457 1453 1449 1454 1461 1457 1444 1443 1451 1450 1447 1446 1448 1452 1449 1451 1456 1451 1450 1469 1480 1463 1450 1454 1456 1454 1453 1452 1452 1452 1453 1456 1458 1462 1467 1470 1472 1473 1475 1477 1478 1480 1482 1485 1488 1492 1494 1496 1497 1498 1500 1501 1501 1503 1505 1506 1508 1509 1510 1511 1511 1512 1512 1513 1513 1513 1513 1514 1515 1516 1517 1517 1518 1519 1519 1519 1520 1520 1520 1520
1439 1440 1438 1440 1445 1446 1446 1444 1443 1447 1450 1447 1442 1444 1449 1450 1450 1450 1455 1458 1456 1459 1464 1457 1451 1467 1479 1464 1455 1460 1459 1455 1452 1450 1449 1450 1452 1456 1458 1462 1467 1471 1474 1473 1473 1474 1477 1481 1483 1486 1489 1491 1494 1495 1497 1498 1499 1500 1501 1503 1505 1506 1507 1508 1509 1510 1510 1511 1511 1512 1512 1512 1512 1513 1514 1515 1515 1516 1517 1518 1518 1519 1520 1520 1520 1519
1438 1439 1438 1440 1443 1441 1440 1440 1440 1442 1444 1444 1445 1449 1453 1456 1456 1457 1461 1465 1470 1473 1470 1461 1453 1465 1477 1465 1455 1460 1457 1452 1450 1448 1448 1448 1451 1455 1458 1463 1467 1472 1474 1472 1472 1476 1480 1483 1484 1486 1489 1491 1493 1494 1494 1495 1497 1499 1501 1503 1504 1505 1506 1507 1508 1509 1509 1509 1510 1511 1511 1511 1511 1512 1513 1514 1515 1515 1515 1516 1517 1518 1518 1519 1519 1519
1438 1441 1441 1439 1440 1439 1438 1440 1439 1440 1442 1445 1449 1453 1460 1465 1464 1463 1462 1466 1479 1484 1473 1461 1454 1461 1476 1470 1458 1456 1453 1450 1450 1448 1447 1447 1450 1454 1458 1463 1466 1471 1474 1472 1474 1478 1481 1484 1484 1486 1489 1490 1492 1492 1491 1493 1496 1498 1500 1502 1503 1504 1506 1506 1507 1508 1508 1508 1509 1510 1510 1510 1510 1511 1512 1513 1514 1515 1515 1515 1515 1516 1517 1517 1518 1519
1445 1441 1440 1439 1440 1438 1440 1442 1442 1441 1445 1451 1455 1459 1468 1472 1470 1470 1466 1467 1479 1481 1467 1457 1455 1461 1471 1467 1459 1457 1453 1451 1450 1449 1449 1448 1450 1454 1457 1462 1466 1470 1474 1473 1474 1478 1480 1482 1484 1485 1487 1490 1491 1491 1492 1494 1496 1498 1499 1500 1502 1503 1504 1506 1507 1507 1507 1508 1508 1509 1509 1509 1510 1510 1511 1512 1512 1513 1514 1514 1514 1514 1515 1516 1517 1518
1457 1444 1440 1441 1440 1438 1441 1444 1448 1449 1450 1457 1462 1468 1474 1471 1473 1475 1468 1466 1475 1474 1464 1457 1459 1469 1472 1465 1460 1458 1454 1451 1450 1451 1453 1452 1452 1455 1458 1462 1466 1468 1471 1473 1475 1478 1480 1482 1483 1484 1486 1488 1489 1491 1493 1495 1496 1497 1498 1500 1501 1502 1503 1505 1506 1506 1507 1507 1508 1508 1508 1509 1510 1510 1510 1511 1511 1511 1512 1512 1513 1514 1514 1515 1515 1516
1462 1454 1445 1444 1443 1440 1440 1443 1447 1449 1449 1453 1454 1461 1466 1463 1470 1475 1466 1467 1476 1475 1469 1465 1469 1480 1481 1472 1464 1459 1453 1451 1454 1455 1454 1455 1456 1458 1461 1463 1466 1469 1472 1475 1477 1478 1480 1481 1482 1483 1485 1486 1488 1491 1494 1495 1496 1496 1498 1499 1500 1501 1503 1504 1505 1506 1506 1506 1507 1508 1508 1509 1509 1509 1509 1509 1509 1510 1511 1511 1512 1513 1513 1514 1515 1515
1458 1457 1444 1442 1442 1439 1441 1441 1441 1449 1453 1448 1443 1452 1459 1455 1464 1473 1468 1467 1472 1476 1477 1475 1477 1482 1479 1472 1465 1462 1459 1455 1457 1456 1452 1455 1458 1460 1464 1468 1470 1472 1473 1477 1480 1480 1481 1481 1481 1483 1484 1486 1489 1491 1493 1493 1494 1495 1497 1499 1499 1500 1502 1504 1505 1505 1506 1506 1506 1506 1507 1507 1508 1508 1508 1509 1509 1509 1510 1510 1511 1511 1512 1513 1514 1514
1459 1456 1441 1441 1443 1438 1442 1442 1440 1452 1457 1450 1448 1452 1449 1444 1455 1469 1472 1468 1468 1478 1485 1481 1481 1482 1479 1478 1470 1465 1466 1461 1458 1458 1454 1458 1463 1463 1466 1471 1474 1476 1477 1480 1482 1482 1482 1481 1481 1483 1484 1486 1489 1490 1490 1491 1492 1494 1496 1497 1498 1499 1501 1503 1505 1505 1505 1505 1505 1505 1505 1506 1507 1508 1508 1508 1508 1508 1508 1509 1509 1509 1510 1511 1512 1513
1458 1457 1440 1439 1446 1440 1439 1441 1440 1443 1445 1449 1453 1445 1438 1445 1453 1458 1465 1470 1472 1481 1486 1482 1482 1483 1485 1489 1479 1467 1466 1464 1461 1460 1458 1461 1466 1468 1471 1474 1477 1479 1479 1481 1481 1480 1481 1481 1482 1484 1485 1487 1488 1489 1489 1490 1491 1494 1495 1496 1497 1499 1500 1501 1503 1503 1502 1502 1503 1504 1504 1505 1506 1506 1507 1507 1507 1507 1507 1506 1506 1507 1508 1509 1510 1511
1456 1463 1448 1438 1444 1440 1435 1441 1446 1441 1436 1441 1443 1435 1442 1460 1462 1456 1462 1469 1472 1479 1486 1486 1485 1483 1484 1488 1482 1472 1467 1466 1465 1464 1462 1464 1467 1470 1474 1475 1475 1475 1476 1478 1479 1479 1479 1481 1482 1484 1486 1488 1488 1489 1489 1490 1491 1492 1493 1495 1497 1498 1499 1499 1500 1500 1500 1501 1503 1504 1504 1504 1504 1505 1506 1506 1506 1506 1505 1505 1505 1505 1506 1507 1508 1508
1448 1461 1457 1440 1437 1439 1437 1444 1454 1450 1438 1435 1436 1433 1438 1446 1449 1456 1463 1466 1468 1473 1482 1490 1489 1484 1480 1478 1477 1473 1468 1466 1467 1467 1466 1467 1469 1471 1474 1475 1474 1475 1476 1478 1478 1477 1478 1481 1483 1485 1487 1488 1488 1488 1488 1489 1490 1491 1492 1495 1497 1498 1498 1498 1499 1499 1500 1503 1504 1504 1503 1503 1503 1503 1503 1504 1504 1504 1504 1504 1504 1503 1503 1504 1505 1506
1444 1455 1460 1448 1440 1443 1444 1445 1450 1449 1441 1439 1440 1439 1438 1436 1439 1451 1461 1465 1466 1466 1473 1486 1494 1487 1477 1474 1474 1473 1470 1467 1467 1467 1467 1469 1471 1473 1476 1477 1476 1476 1477 1478 1478 1478 1480 1483 1485 1486 1487 1487 1487 1487 1487 1487 1488 1488 1490 1493 1496 1497 1498 1499 1500 1500 1501 1504 1503 1502 1501 1500 1500 1499 1500 1502 1502 1502 1502 1502 1503 1503 1503 1503 1503 1504
1445 1451 1458 1458 1453 1448 1440 1436 1437 1439 1439 1439 1439 1438 1437 1438 1445 1458 1469 1468 1462 1460 1464 1478 1495 1494 1478 1474 1475 1472 1470 1469 1468 1469 1470 1471 1473 1474 1476 1477 1477 1476 1477 1478 1480 1482 1483 1485 1486 1487 1487 1487 1487 1487 1487 1486 1486 1487 1489 1492 1495 1497 1498 1498 1499 1500 1501 1501 1500 1499 1498 1497 1496 1496 1498 1499 1500 1501 1501 1501 1502 1502 1502 1502 1502 1503
1444 1448 1453 1455 1451 1441 1432 1430 1432 1434 1435 1435 1437 1436 1434 1439 1452 1467 1474 1468 1460 1460 1459 1466 1488 1495 1481 1474 1474 1471 1471 1471 1471 1471 1472 1473 1475 1476 1477 1477 1478 1478 1479 1480 1482 1484 1485 1486 1487 1488 1488 1489 1489 1489 1488 1487 1487 1488 1490 1493 1495 1496 1496 1497 1498 1500 1500 1499 1497 1496 1495 1494 1494 1494 1495 1497 1498 1499 1500 1500 1500 1500 1501 1501 1502 1502
1443 1451 1455 1450 1442 1434 1430 1430 1432 1433 1435 1439 1440 1436 1433 1435 1442 1450 1455 1457 1462 1466 1461 1467 1489 1498 1487 1478 1475 1472 1472 1472 1473 1473 1473 1475 1477 1477 1479 1479 1480 1481 1482 1483 1484 1485 1486 1487 1488 1489 1490 1490 1490 1490 1489 1488 1488 1489 1492 1493 1495 1496 1496 1497 1498 1499 1499 1498 1496 1494 1493 1493 1493 1493 1494 1496 1497 1497 1498 1499 1499 1499 1499 1500 1501 1501
1447 1455 1459 1457 1453 1447 1445 1446 1446 1442 1438 1441 1440 1435 1432 1429 1431 1439 1443 1448 1462 1465 1458 1469 1490 1495 1488 1481 1476 1474 1474 1473 1474 1475 1475 1477 1478 1479 1481 1481 1482 1484 1485 1485 1485 1486 1487 1488 1489 1490 1491 1492 1491 1490 1491 1490 1490 1492 1494 1494 1494 1495 1495 1495 1495 1495 1495 1495 1494 1492 1492 1492 1492 1493 1494 1494 1495 1496 1496 1497 1497 1498 1498 1499 1499 1500
1451 1457 1458 1463 1467 1465 1464 1461 1455 1448 1442 1442 1440 1434 1433 1431 1432 1440 1445 1452 1465 1464 1456 1469 1487 1491 1488 1485 1481 1478 1476 1475 1476 1477 1477 1479 1480 1482 1483 1484 1485 1486 1487 1487 1488 1488 1489 1490 1490 1491 1492 1494 1494 1493 1493 1493 1493 1493 1494 1494 1494 1494 1493 1493 1493 1493 1492 1492 1491 1491 1490 1490 1491 1491 1492 1493 1493 1494 1494 1495 1495 1496 1496 1497 1498 1499
1451 1455 1455 1459 1463 1462 1459 1453 1445 1443 1445 1449 1446 1437 1435 1436 1435 1439 1449 1459 1465 1465 1468 1476 1481 1486 1490 1488 1485 1482 1479 1478 1478 1477 1479 1480 1481 1482 1483 1485 1486 1487 1489 1490 1490 1491 1491 1491 1492 1493 1493 1495 1495 1495 1494 1494 1494 1494 1494 1494 1493 1493 1493 1492 1492 1491 1491 1490 1490 1490 1490 1490 1490 1490 1491 1492 1492 1493 1493 1494 1494 1494 1495 1496 1496 1497
1454 1458 1456 1456 1457 1451 1446 1442 1438 1439 1442 1444 1444 1441 1440 1441 1440 1444 1454 1459 1457 1467 1484 1482 1474 1481 1488 1484 1483 1482 1480 1481 1480 1479 1481 1481 1482 1483 1483 1485 1486 1486 1488 1489 1490 1491 1491 1492 1493 1493 1494 1495 1495 1495 1494 1494 1494 1494 1493 1493 1493 1492 1492 1492 1491 1490 1490 1489 1489 1489 1490 1490 1490 1491 1491 1492 1492 1493 1493 1493 1494 1494 1494 1494 1495 1495
1457 1461 1456 1455 1456 1449 1443 1441 1437 1437 1441 1441 1441 1443 1443 1444 1445 1449 1454 1453 1452 1465 1479 1476 1473 1480 1483 1480 1481 1480 1481 1483 1482 1481 1482 1483 1483 1484 1484 1486 1487 1487 1489 1490 1490 1491 1492 1493 1494 1494 1495 1495 1496 1496 1495 1495 1495 1494 1494 1493 1492 1492 1492 1491 1491 1490 1490 1490 1489 1490 1490 1490 1491 1491 1492 1493 1493 1494 1494 1493 1493 1493 1493 1493 1493 1494
1457 1461 1457 1455 1456 1450 1447 1447 1443 1443 1447 1445 1443 1444 1445 1447 1448 1449 1452 1452 1454 1463 1469 1469 1474 1479 1478 1478 1479 1479 1481 1483 1483 1483 1484 1484 1485 1485 1486 1487 1488 1489 1491 1492 1493 1495 1495 1496 1497 1497 1497 1497 1497 1497 1496 1495 1494 1494 1494 1493 1492 1492 1492 1491 1491 1490 1490 1491 1490 1491 1491 1491 1491 1491 1492 1492 1492 1492 1492 1492 1492 1492 1492 1492 1492 1493
1457 1460 1456 1454 1458 1456 1449 1445 1446 1452 1453 1448 1448 1448 1447 1451 1453 1453 1456 1457 1459 1466 1468 1470 1478 1481 1479 1478 1478 1479 1481 1482 1483 1485 1485 1486 1487 1487 1488 1490 1491 1492 1494 1495 1496 1497 1498 1499 1499 1499 1498 1498 1498 1497 1496 1496 1495 1495 1494 1494 1493 1493 1492 1491 1491 1490 1491 1490 1490 1490 1490 1491 1491 1491 1491 1491 1490 1490 1489 1489 1490 1490 1490 1491 1491 1492
1456 1459 1455 1456 1465 1463 1451 1446 1449 1452 1453 1454 1457 1457 1453 1455 1459 1459 1460 1459 1461 1468 1471 1474 1480 1483 1480 1478 1479 1481 1481 1482 1483 1484 1485 1487 1488 1488 1490 1491 1493 1495 1495 1496 1498 1499 1500 1500 1500 1500 1499 1499 1498 1498 1497 1497 1496 1496 1495 1494 1494 1493 1492 1491 1491 1491 1491 1490 1490 1490 1489 1489 1490 1490 1490 1490 1490 1489 1488 1488 1488 1488 1488 1488 1488 1489
1455 1459 1459 1461 1469 1465 1453 1452 1455 1457 1466 1472 1467 1461 1458 1457 1460 1462 1462 1461 1462 1466 1470 1474 1478 1478 1477 1478 1480 1481 1482 1484 1485 1485 1487 1488 1488 1490 1491 1491 1493 1495 1496 1497 1498 1499 1500 1500 1500 1500 1500 1499 1499 1498 1498 1498 1497 1497 1496 1495 1494 1493 1493 1492 1491 1490 1490 1490 1490 1489 1489 1489 1489 1489 1490 1489 1489 1489 1488 1488 1488 1487 1487 1487 1487 1487
1455 1458 1458 1460 1469 1467 1456 1453 1455 1463 1478 1480 1466 1458 1459 1459 1461 1465 1467 1466 1465 1464 1466 1470 1473 1475 1477 1478 1481 1483 1484 1485 1486 1487 1488 1489 1489 1491 1492 1492 1494 1496 1497 1498 1499 1500 1500 1500 1501 1500 1500 1500 1500 1499 1499 1499 1498 1498 1497 1496 1495 1494 1493 1492 1491 1491 1490 1490 1490 1489 1489 1489 1489 1489 1489 1489 1488 1488 1487 1487 1487 1487 1487 1486 1486 1486
1457 1458 1457 1458 1465 1465 1458 1458 1467 1476 1477 1470 1460 1458 1459 1459 1459 1464 1468 1468 1468 1467 1468 1471 1474 1476 1477 1479 1481 1483 1484 1486 1488 1489 1490 1490 1491 1491 1492 1494 1495 1497 1498 1500 1500 1500 1500 1500 1500 1500 1500 1500 1500 1499 1499 1499 1498 1498 1497 1496 1495 1494 1494 1493 1492 1492 1491 1491 1491 1490 1490 1490 1489 1489 1489 1488 1488 1487 1487 1486 1486 1486 1486 1485 1485 1484
1457 1460 1460 1461 1464 1466 1465 1467 1477 1482 1474 1465 1464 1461 1459 1460 1462 1467 1474 1475 1471 1471 1472 1474 1476 1477 1478 1480 1482 1483 1485 1487 1489 1490 1492 1492 1493 1493 1494 1495 1496 1498 1499 1500 1500 1500 1500 1500 1500 1500 1500 1500 1500 1500 1499 1499 1498 1498 1497 1497 1496 1495 1495 1494 1493 1493 1492 1492 1491 1491 1490 1490 1489 1489 1488 1488 1487 1487 1486 1486 1485 1485 1484 1484 1483 1482
1454 1459 1463 1465 1465 1468 1473 1472 1473 1477 1475 1470 1468 1463 1461 1463 1463 1466 1476 1479 1474 1472 1474 1475 1477 1478 1479 1481 1483 1484 1486 1488 1491 1493 1494 1495 1495 1495 1496 1497 1498 1499 1499 1500 1500 1500 1500 1500 1500 1500 1500 1500 1499 1499 1499 1499 1499 1498 1497 1497 1496 1496 1496 1495 1494 1494 1493 1493 1492 1491 1491 1490 1490 1489 1489 1488 1487 1487 1486 1486 1485 1484 1484 1483 1482 1482
1454 1458 1463 1468 1467 1466 1474 1478 1475 1478 1480 1475 1469 1463 1462 1464 1461 1462 1472 1480 1478 1475 1476 1477 1478 1479 1480 1482 1484 1486 1487 1489 1493 1496 1497 1497 1497 1497 1498 1498 1499 1499 1500 1500 1501 1500 1501 1501 1500 1500 1500 1500 1499 1499 1499 1499 1499 1498 1498 1498 1497 1496 1496 1495 1495 1495 1494 1493 1493 1492 1491 1491 1490 1490 1489 1488 1488 1487 1487 1486 1485 1484 1483 1483 1482 1482
1457 1459 1462 1469 1470 1467 1473 1478 1474 1475 1480 1476 1469 1464 1463 1464 1462 1462 1473 1484 1482 1478 1481 1482 1481 1481 1482 1484 1486 1488 1488 1491 1495 1498 1498 1498 1498 1498 1498 1499 1499 1500 1500 1501 1501 1501 1501 1501 1501 1501 1500 1500 1500 1500 1499 1499 1499 1498 1498 1498 1497 1497 1496 1496 1496 1495 1495 1494 1493 1493 1492 1491 1491 1490 1490 1490 1489 1488 1488 1487 1486 1485 1484 1483 1482 1482
1464 1464 1466 1472 1475 1474 1479 1481 1474 1472 1476 1473 1467 1466 1465 1464 1463 1469 1481 1487 1482 1480 1482 1482 1482 1483 1484 1486 1488 1489 1490 1491 1494 1497 1498 1499 1499 1499 1499 1499 1500 1500 1501 1501 1501 1501 1501 1501 1501 1501 1500 1500 1500 1500 1500 1500 1499 1499 1499 1499 1498 1498 1497 1497 1497 1496 1496 1495 1494 1493 1492 1491 1491 1491 1490 1490 1490 1490 1489 1488 1487 1486 1485 1484 1484 1483
1470 1469 1471 1475 1477 1479 1486 1488 1481 1474 1472 1468 1467 1467 1466 1465 1468 1477 1485 1483 1479 1480 1480 1480 1482 1485 1485 1487 1489 1490 1491 1492 1493 1496 1498 1499 1499 1500 1500 1500 1501 1501 1501 1502 1502 1502 1502 1502 1501 1501 1501 1501 1501 1500 1500 1500 1499 1500 1500 1499 1499 1499 1499 1498 1498 1497 1497 1496 1495 1494 1493 1492 1492 1491 1491 1491 1491 1491 1491 1490 1489 1488 1487 1486 1485 1484
1470 1470 1471 1475 1480 1483 1487 1491 1489 1481 1471 1466 1467 1468 1467 1471 1478 1481 1481 1479 1479 1480 1480 1481 1483 1484 1485 1488 1489 1490 1492 1494 1495 1497 1498 1499 1500 1500 1500 1501 1501 1501 1502 1502 1502 1502 1502 1502 1502 1502 1502 1502 1502 1502 1501 1501 1501 1501 1501 1500 1500 1501 1500 1500 1499 1498 1497 1497 1496 1495 1494 1494 1493 1492 1492 1491 1491 1491 1491 1491 1490 1489 1488 1487 1486 1485
1465 1469 1472 1476 1480 1482 1486 1490 1490 1484 1473 1466 1468 1469 1470 1475 1480 1480 1479 1480 1481 1481 1481 1483 1484 1484 1486 1488 1489 1491 1494 1495 1496 1498 1498 1500 1500 1500 1501 1502 1502 1503 1503 1503 1503 1503 1503 1503 1503 1503 1503 1503 1503 1503 1502 1502 1502 1502 1502 1502 1501 1502 1501 1501 1500 1499 1498 1498 1497 1497 1496 1495 1494 1493 1493 1492 1492 1491 1491 1491 1491 1490 1490 1489 1488 1487
1463 1467 1472 1475 1476 1479 1483 1484 1481 1477 1473 1470 1471 1474 1474 1475 1478 1479 1480 1481 1482 1483 1483 1484 1485 1486 1487 1488 1490 1493 1495 1496 1498 1499 1499 1500 1501 1501 1502 1503 1503 1504 1504 1504 1504 1504 1504 1504 1504 1503 1504 1504 1503 1504 1503 1503 1503 1503 1503 1503 1503 1503 1502 1502 1501 1501 1500 1499 1498 1498 1497 1496 1495 1495 1495 1494 1493 1492 1492 1491 1491 1491 1491 1490 1490 1489
1466 1464 1467 1471 1473 1475 1477 1477 1476 1476 1477 1475 1476 1477 1477 1477 1478 1480 1481 1481 1483 1484 1485 1485 1487 1488 1489 1491 1493 1494 1496 1497 1499 1499 1500 1501 1502 1502 1503 1504 1504 1505 1505 1505 1505 1505 1505 1505 1505 1505 1505 1504 1504 1505 1505 1504 1504 1504 1504 1504 1504 1504 1503 1503 1502 1502 1501 1501 1500 1499 1499 1498 1497 1496 1496 1495 1495 1494 1493 1492 1491 1491 1490 1490 1490 1490
1467 1465 1465 1469 1472 1472 1474 1477 1477 1478 1480 1479 1480 1481 1480 1479 1481 1482 1482 1483 1485 1486 1487 1488 1489 1490 1491 1493 1494 1496 1498 1499 1499 1500 1501 1502 1503 1504 1504 1505 1505 1506 1506 1506 1506 1506 1506 1506 1506 1506 1506 1506 1506 1506 1505 1506 1506 1505 1506 1506 1505 1504 1504 1503 1503 1503 1502 1502 1501 1500 1500 1499 1498 1497 1497 1496 1496 1495 1494 1493 1492 1492 1491 1490 1490 1489
1468 1468 1467 1469 1472 1475 1480 1482 1480 1480 1481 1481 1481 1481 1481 1482 1484 1484 1485 1486 1487 1488 1489 1490 1491 1492 1493 1494 1496 1497 1499 1499 1500 1501 1502 1503 1504 1505 1505 1506 1506 1506 1507 1507 1507 1507 1508 1507 1507 1507 1507 1507 1507 1507 1507 1507 1506 1506 1507 1507 1506 1506 1505 1504 1504 1503 1503 1503 1502 1501 1501 1500 1500 1499 1498 1497 1497 1496 1495 1494 1493 1493 1492 1491 1491 1490
1469 1469 1469 1471 1474 1477 1482 1484 1482 1482 1483 1482 1482 1483 1483 1484 1486 1487 1487 1488 1489 1491 1492 1493 1494 1495 1495 1496 1498 1499 1500 1500 1501 1502 1503 1504 1505 1505 1506 1507 1507 1507 1508 1508 1508 1509 1509 1508 1508 1508 1508 1508 1508 1508 1508 1507 1507 1507 1507 1507 1507 1506 1506 1505 1505 1504 1504 1503 1502 1502 1501 1501 1501 1500 1499 1498 1497 1496 1496 1495 1493 1493 1493 1492 1491 1490
1468 1469 1470 1473 1476 1479 1483 1485 1484 1485 1485 1485 1485 1485 1485 1486 1488 1489 1490 1491 1492 1493 1495 1495 1496 1497 1497 1498 1499 1500 1500 1501 1502 1503 1504 1505 1506 1506 1507 1508 1508 1508 1509 1509 1509 1509 1509 1509 1509 1509 1509 1509 1509 1509 1509 1508 1508 1508 1508 1508 1507 1506 1506 1506 1505 1505 1505 1504 1503 1502 1501 1501 1501 1500 1500 1499 1497 1497 1497 1496 1494 1493 1492 1492 1491 1490
1468 1470 1471 1473 1478 1483 1485 1484 1484 1486 1487 1486 1487 1487 1488 1489 1490 1491 1492 1493 1495 1496 1497 1497 1498 1499 1499 1500 1501 1501 1502 1502 1503 1504 1505 1506 1507 1508 1508 1509 1509 1510 1510 1510 1510 1510 1510 1510 1510 1510 1510 1510 1509 1510 1510 1509 1509 1509 1508 1508 1508 1507 1506 1506 1505 1505 1505 1504 1503 1502 1502 1501 1501 1500 1500 1499 1498 1496 1496 1495 1494 1493 1492 1492 1491 1490
1473 1474 1473 1474 1479 1484 1484 1483 1483 1484 1485 1487 1488 1489 1490 1491 1492 1493 1495 1496 1497 1498 1498 1499 1500 1500 1501 1501 1502 1502 1503 1504 1505 1505 1506 1507 1508 1509 1509 1510 1510 1510 1510 1511 1511 1511 1510 1510 1510 1510 1510 1510 1510 1510 1510 1509 1509 1509 1509 1508 1508 1507 1506 1506 1505 1505 1505 1504 1503 1503 1502 1501 1501 1500 1500 1499 1498 1497 1495 1494 1493 1493 1492 1491 1491 1490